User: anonymous   Login
Location: Caltech
(34.1382°N, 118.1253°W)
Time: 17:24:57
(UTC-08:00)
Language:

Iridium 62 - Orbit

View from above orbital plane
View from above orbital plane
View from above satellite
View from above satellite

Ground track
Ground track

The orbit data is extracted from the following two-line orbital elements,

1 25285U 98021A   14331.33885204  .00000526  00000-0  18060-3 0   270
2 25285 086.3977 253.8034 0002147 102.6530 257.4906 14.34218352871316
Epoch (UTC): 27 November 2014 08:07:56
Eccentricity: 0.0002147
inclination: 86.3977°
perigee height: 776 km
apogee height: 779 km
right ascension of ascending node: 253.8034°
argument of perigee: 102.6530°
revolutions per day: 14.34218352
mean anomaly at epoch: 257.4906°
orbit number at epoch: 87131

The dashed part of the orbit path shows where the satellite is in the earth's shadow,  

DLR